Location: Pulvis Stellarum Observatory
(41.6962°N, 71.4263°W)
Time: 22:53:23
(UTC-04:00)

Daily predictions for brighter satellites

Satellite Brightness Start Highest point End
(mag) Time Altitude Azimuth Time Altitude Azimuth Time Altitude Azimuth
Cosmos 2056 Rocket 3.4 20:32:25 10° SSW 20:37:34 78° ESE 20:42:42 10° NNE
H-2A R/B 4.4 20:34:38 10° SW 20:38:25 26° SSE 20:51:05 10° ESE
Cosmos 1371 Rocket 4.4 20:34:44 10° SSW 20:40:03 74° WNW 20:45:20 10° NNE
Meteor 2-3 Rocket 4.3 20:35:18 10° SSW 20:40:52 64° WNW 20:46:26 10° N
ISS -2.3 20:38:31 10° SSW 20:41:17 26° SE 20:44:03 10° ENE
SPOT 5 4.1 20:37:30 10° SE 20:42:05 31° ENE 20:46:44 10° N
Cosmos 1862 4.4 20:40:39 10° SSE 20:44:04 26° E 20:47:30 10° NNE
USA 186 2.8 20:41:56 10° S 20:44:57 47° W 20:48:09 10° NNW
Cosmos 1674 Rocket 3.6 20:45:30 10° N 20:49:57 69° E 20:54:22 10° SSE
NOSS 2-2 (C) 4.1 20:46:05 10° SW 20:50:09 64° NW 20:54:57 10° NNE
Nadezhda 3 Rocket 4.4 20:45:27 10° N 20:51:34 47° ENE 20:57:40 10° SSE
COS B Rocket 4.1 20:48:35 10° NNE 20:52:14 31° E 20:55:32 10° SSE
Resurs 01 Rocket 4.5 20:51:35 10° SW 20:54:06 15° W 20:56:36 10° WNW
Meteor 1-27 Rocket 3.9 20:49:45 10° N 20:55:13 53° ENE 21:00:35 10° SSE
SL-27 R/B 2.8 20:54:09 10° NNW 20:57:48 68° WSW 21:01:21 10° S
Cosmos 1606 3.1 20:54:53 10° N 20:58:43 49° E 21:02:31 10° SSE
Sich 1 Rocket 3.6 20:56:58 10° S 21:01:32 69° E 21:06:06 10° NNE
Cosmos 1892 4.1 21:01:24 10° SSW 21:05:01 41° WNW 21:08:43 10° N
Cosmos 1782 Rocket 4.3 21:01:24 10° SSE 21:05:25 34° E 21:09:27 10° NNE
Cosmos 1782 3.1 21:05:34 10° NNW 21:09:35 69° W 21:13:36 10° S
Envisat 3.0 21:06:23 10° SSE 21:11:27 77° ENE 21:16:33 10° N
CZ-4 DEB 4.5 21:12:18 10° SSW 21:15:10 31° W 21:18:03 10° NNW
COSMOS 2487 2.9 21:12:18 10° N 21:15:50 46° ENE 21:18:10 19° SE
GPS 2-05 Rocket1 4.1 21:12:41 10° SW 21:15:52 27° S 21:17:32 19° SE
Cosmos 2341 Rocket 4.1 21:10:24 10° S 21:16:33 58° E 21:22:41 10° NNE
Atlas Centaur 2 3.1 21:15:40 10° SSW 21:17:10 12° S 21:18:09 11° S
Cosmos 1975 Rocket 3.4 21:16:08 10° N 21:20:18 45° ENE 21:23:14 18° SE
Coronas F rocket 4.5 21:19:03 10° WSW 21:20:44 15° WNW 21:22:25 10° NW
Cosmos 1939 Rocket 3.1 21:18:08 10° S 21:21:59 67° W 21:25:55 10° NNW
Cosmos 1420 Rocket 4.4 21:17:18 10° S 21:22:14 43° ESE 21:27:10 10° NNE
ARGOS 3.8 21:23:43 18° SE 21:27:16 39° ENE 21:32:12 10° N
ATLAS 5 CENTAUR R/B 3.8 21:22:55 10° NW 21:28:18 33° WSW 21:33:56 10° S
ERS-1 Rocket 3.8 21:24:15 10° S 21:29:07 49° W 21:34:00 10° NNW
Cosmos 407 Rocket 4.2 21:24:35 10° NNW 21:29:44 54° WSW 21:34:54 10° S
Cosmos 1908 Rocket 3.8 21:25:46 10° SSW 21:30:09 74° W 21:34:37 10° N
Cosmos 2084 3.1 21:26:18 10° SW 21:30:10 86° NW 21:34:01 10° NE
Timation 2 Rocket 4.1 21:24:24 10° NNW 21:30:18 55° ENE 21:34:21 20° SE
SL-8 Rocket 4.4 21:25:34 13° SSE 21:30:44 44° E 21:36:35 10° NNE
Cosmos 962 Rocket 4.4 21:25:11 10° S 21:31:19 75° E 21:37:32 10° N
Cosmos 1378 Rocket 3.5 21:28:02 10° N 21:32:22 83° W 21:36:02 14° S
H-2A R/B 3.4 21:32:36 17° ESE 21:35:23 25° ENE 21:39:38 10° NNE
Cosmos 1140 Rocket 3.5 21:30:40 10° NNW 21:35:48 66° ENE 21:39:05 22° SE
deb Chang Zheng 4 4.1 21:32:12 10° N 21:36:35 64° WNW 21:40:58 10° SSW
USA 234 4.1 21:34:20 10° ENE 21:39:31 25° SE 21:44:00 12° S
Cosmos 1452 Rocket 3.9 21:35:17 10° SSW 21:40:30 68° WNW 21:45:47 10° NNE
Cosmos 2154 Rocket 4.3 21:36:57 10° SSW 21:43:08 70° W 21:49:21 10° N
USA 245 3.2 21:44:18 34° SE 21:45:33 57° ENE 21:49:32 10° N
YAOGAN 6 2.4 21:44:09 29° SSE 21:45:51 84° ENE 21:49:23 10° N
Cosmos 1408 3.2 21:44:21 10° SSW 21:47:58 56° W 21:51:34 10° N
CZ-4B R/B 3.5 21:43:14 10° NNE 21:48:06 55° E 21:51:12 21° S
Cosmos 1242 Rocket 2.5 21:45:18 10° N 21:48:58 75° E 21:50:30 33° SSE
Cosmos 1833 Rocket 3.5 21:43:59 10° N 21:49:10 37° ENE 21:52:00 23° ESE
SPOT 1/Viking Rocket 3.6 21:47:23 24° SSE 21:50:35 71° ENE 21:55:48 10° N
Cosmos 2278 Rocket 2.4 21:45:12 10° SSW 21:50:52 77° WNW 21:56:35 10° NNE
Cosmos 1295 Rocket 4.5 21:44:44 10° S 21:51:02 77° E 21:57:19 10° N
CZ-4 SHROUD 3.4 21:50:45 31° S 21:52:01 65° WSW 21:55:06 10° NNW
Cosmos 1825 3.0 21:48:37 10° SSW 21:52:19 50° W 21:56:04 10° N
Cosmos 1844 Rocket 4.3 21:49:00 10° SW 21:54:11 37° WNW 21:59:24 10° N
Intercosmos 25 2.8 21:52:53 27° S 21:54:41 78° E 21:57:51 10° N
MetOp-A 4.3 21:52:41 18° S 21:56:43 70° WSW 22:02:05 10° NNW
PSLV R/B 3.8 21:55:39 29° SSW 21:56:46 47° W 21:59:40 10° NNW
Cosmos 2151 Rocket 4.0 21:56:02 32° SE 21:57:34 45° E 22:01:54 10° NNE
Landsat 7 4.4 21:57:13 30° ESE 21:59:01 43° ENE 22:03:31 10° N
H-2A R/B 3.6 21:55:30 10° SSW 21:59:23 32° W 22:03:12 10° NNW
Cosmos 1184 Rocket 4.1 21:59:21 11° SSW 22:02:26 40° WNW 22:05:37 10° N
Meteor 1-14 Rocket 4.2 21:58:46 20° S 22:02:45 70° E 22:08:19 10° NNE
Cosmos 2082 Rocket 2.3 22:04:54 10° NNW 22:10:36 67° ENE 22:13:01 35° SE
Cosmos 2366 rocket 4.0 22:07:19 25° SSE 22:11:04 66° E 22:17:22 10° NNE
IGS 5A 4.4 22:10:41 31° E 22:11:21 33° ENE 22:15:05 10° N
Cosmos 1850 Rocket 4.1 22:07:36 10° NNW 22:12:56 79° WSW 22:15:24 33° S
Terra 2.4 22:13:28 35° ESE 22:14:44 43° ENE 22:19:14 10° N
Cosmos 1812 3.6 22:12:39 10° N 22:16:13 34° ENE 22:16:16 34° E
ISS -1.9 22:14:31 10° W 22:17:36 39° NNW 22:20:42 10° NE
SL-08 RB Rocket 3.7 22:17:18 39° S 22:19:01 84° WSW 22:23:41 10° NNW
SPOT 5 4.4 22:15:48 13° SSW 22:20:00 36° W 22:24:54 10° NNW
Okean 1 Rocket 4.2 22:20:59 28° E 22:20:59 28° E 22:24:35 10° NNE
Spot 4 4.5 22:24:25 37° ESE 22:25:28 42° ENE 22:30:02 10° N
Cosmos 2297 3.8 22:20:14 10° SSW 22:25:56 78° WNW 22:31:42 10° NNE
USA 229 DEB 3.8 22:19:00 10° NNW 22:26:09 78° NE 22:29:26 35° SE
USA 229 3.8 22:19:06 10° NNW 22:26:14 77° NE 22:29:32 35° SE
DMSP B5D2-2 4.1 22:28:15 10° NNE 22:33:25 58° E 22:34:30 48° SE
Lacrosse 5 3.8 22:38:29 16° ENE 22:38:29 16° ENE 22:39:38 10° ENE
Gbstr 26 Del rocket 4.2 22:33:47 10° NW 22:38:32 40° NNE 22:40:13 28° ENE
Cosmos 2218 Rocket 4.3 22:33:57 19° SSW 22:38:41 67° W 22:45:05 10° N
Cosmos 1331 Rocket 3.9 22:42:01 56° SE 22:42:41 61° ESE 22:47:46 10° NNE
CZ-4C R/B 3.4 22:43:58 62° SW 22:44:16 65° W 22:48:21 10° NNW
ASTEX 1 3.5 22:40:09 10° NNE 22:45:00 53° E 22:45:20 52° ESE
Timation 1 Rocket 4.2 22:44:33 36° SSW 22:47:09 78° ESE 22:53:10 10° NNE
BREEZE-M DEB (TANK) 3.3 22:39:55 10° WNW 22:47:56 42° SW 22:48:20 41° SW
Cosmos 1110 Rocket 3.8 22:48:01 52° S 22:49:18 81° ESE 22:54:33 10° NNE
BREEZE-M DEB (TANK) 4.2 22:49:54 10° NW 22:51:57 22° NNE 22:55:43 10° ENE
Cosmos 1727 Rocket 4.1 22:47:28 10° NNW 22:53:36 67° W 22:56:01 38° SSW
AVUM R/B 4.2 22:51:27 10° NNW 22:54:13 51° NW 22:54:13 51° NW
Cosmos 1400 Rocket 4.4 22:59:56 26° NE 22:59:56 26° NE 23:02:18 10° NNE
CARTOSAT-1 3.7 22:58:42 60° WSW 22:58:58 62° W 23:03:15 10° NNW
Cosmos 2369 Rocket 3.5 23:00:27 24° E 23:00:27 24° E 23:03:48 10° NE
H-2A R/B 2.9 23:13:15 38° SW 23:14:32 45° W 23:19:37 10° NNW
NOSS 3-1 (C) 4.2 23:07:14 10° NNW 23:14:44 67° NE 23:17:46 41° ESE
Cosmos 1486 Rocket 3.9 23:09:23 10° NNW 23:14:45 83° ENE 23:15:08 76° SE
Okean 1 4.4 23:19:05 10° NNW 23:22:36 40° W 23:22:36 40° W
USA 234 3.2 23:16:26 10° NE 23:23:00 88° NW 23:29:33 10° SW
Cosmos 1633 4.4 23:24:49 26° NNE 23:24:49 26° NNE 23:26:39 10° NNE
Cosmos 1821 Rocket 3.9 23:27:03 65° SSE 23:27:58 80° E 23:34:13 10° N
Cosmos 1605 Rocket 4.4 23:28:20 47° E 23:28:44 47° E 23:34:48 10° NNE
Cosmos 1833 Rocket 3.8 23:28:04 10° NW 23:33:00 32° WSW 23:33:42 31° WSW
Cosmos 2285 Rocket 4.0 23:34:44 61° ESE 23:34:59 62° ESE 23:41:17 10° NNE
Cosmos 1943 Rocket 3.9 23:37:08 19° ENE 23:37:08 19° ENE 23:39:31 10° NE
Meteor 2-21 Rocket 4.3 23:39:07 71° S 23:39:51 88° E 23:46:07 10° N
Cosmos 1934 Rocket 3.7 23:40:23 75° SSE 23:40:54 83° E 23:46:59 10° N
Meteor 2-16 Rocket 4.3 23:41:16 72° SE 23:41:40 75° E 23:47:47 10° NNE
Cosmos 1302 Rocket 4.2 23:43:57 61° W 23:44:26 64° WNW 23:49:42 10° NNE
Cosmos 2123 Rocket 3.8 23:38:50 10° N 23:45:08 77° E 23:45:41 71° SE
Cosmos 1025 Rocket 3.7 23:45:10 10° NNW 23:48:39 52° NW 23:48:39 52° NW
Cosmos 1455 Rocket 4.3 23:53:59 36° NE 23:53:59 36° NE 23:56:45 10° NNE
Terra 3.7 23:52:21 20° W 23:52:39 20° W 23:56:09 10° NW
ALOS 2 3.6 23:53:52 41° NE 23:53:52 41° NE 23:57:11 10° N
Cosmos 2082 Rocket 4.1 23:50:32 10° WNW 23:54:03 17° W 23:54:52 16° WSW
ISS -0.2 23:52:38 10° NW 23:54:42 15° N 23:56:46 10° NNE
